Beatrice, NE

5:28 PM CDT on September 25, 2016 (GMT -0500)
Beatrice Municipal

Weather History for KBIE - January, 1999

Change the Weather History Date:

Monday, January 4, 1999

  Actual Average Record
Temperature  
Mean Temperature -1 °F -  
Max Temperature 5 °F 26 °F 59 °F (2012)
Min Temperature -7 °F 9 °F -15 °F (1959)
Degree Days  
Heating Degree Days 66    
Moisture  
Dew Point -9 °F    
Average Humidity 71    
Maximum Humidity 92    
Minimum Humidity 61    
Precipitation  
Precipitation 0.00 in - - ()
Sea Level Pressure  
Sea Level Pressure 30.40 in    
Wind  
Wind Speed 9 mph (WNW)    
Max Wind Speed 20 mph    
Max Gust Speed 17 mph    
Visibility 10 miles    
Events      
Averages and records for this station are not official NWS values.
T = Trace of Precipitation, MM = Missing Value Source: NWS Daily Summary

Daily Weather History Graph

Daily Weather History Graph

Search for Another Location

Airport or City:

Trip Planner

Search our weather history database for the weather conditions in past years. The results will help you decide how hot, cold, wet, or windy it might be!

Date:

Astronomy

Jan. 04, 1999 Rise Set
Actual Time 7:50 AM CST 5:14 PM CST
Civil Twilight 7:19 AM CST 5:44 PM CST
Nautical Twilight 6:45 AM CST 6:18 PM CST
Astronomical Twilight 6:12 AM CST 6:51 PM CST
Moon 8:21 PM CST (1/4) 9:40 AM CST (1/4)
Length of Visible Light 10h 24m
Length of Day
9h 23m
Waning Gibbous, 91% of the Moon is Illuminated
Jan 4
Waning Gibbous
Jan 9
Last Quarter
Jan 17
New
Jan 24
First Quarter
Jan 31
Full

Hourly Weather History & Observations

Time (CST) Temp. Windchill Dew Point Humidity Pressure Visibility Wind Dir Wind Speed Gust Speed Precip Events Conditions
12:08 AM -0.4 °F -16.7 °F -7.6 °F 72% 30.37 in 10.0 mi WNW 10.4 mph - N/A   Clear
12:30 AM -0.4 °F -14.7 °F -7.6 °F 72% 30.37 in 10.0 mi WNW 8.1 mph - N/A   Clear
12:48 AM -0.4 °F -13.4 °F -9.4 °F 66% 30.37 in 10.0 mi NW 6.9 mph - N/A   Clear
1:08 AM -0.4 °F -15.7 °F -9.4 °F 66% 30.37 in 10.0 mi WNW 9.2 mph - N/A   Clear
1:31 AM -0.4 °F -17.6 °F -7.6 °F 72% 30.37 in 10.0 mi WNW 11.5 mph - N/A   Clear
1:52 AM -0.4 °F -16.7 °F -9.4 °F 66% 30.37 in 10.0 mi WNW 10.4 mph - N/A   Clear
2:08 AM -2.2 °F -18.9 °F -9.4 °F 71% 30.37 in 10.0 mi WNW 10.4 mph - N/A   Clear
2:33 AM -2.2 °F -20.7 °F -7.6 °F 78% 30.39 in 10.0 mi WNW 12.7 mph - N/A   Clear
2:48 AM -2.2 °F -19.9 °F -9.4 °F 71% 30.39 in 10.0 mi WNW 11.5 mph - N/A   Clear
3:10 AM -2.2 °F -20.7 °F -7.6 °F 78% 30.40 in 10.0 mi NW 12.7 mph - N/A   Clear
3:28 AM -2.2 °F -16.8 °F -9.4 °F 71% 30.41 in 10.0 mi WNW 8.1 mph - N/A   Clear
3:50 AM -2.2 °F -20.7 °F -9.4 °F 71% 30.41 in 10.0 mi WNW 12.7 mph - N/A   Clear
4:08 AM -2.2 °F -19.9 °F -9.4 °F 71% 30.41 in 10.0 mi WNW 11.5 mph - N/A   Clear
4:30 AM -2.2 °F -20.7 °F -9.4 °F 71% 30.42 in 10.0 mi WNW 12.7 mph 17.3 mph N/A   Scattered Clouds
4:48 AM -2.2 °F -18.9 °F -9.4 °F 71% 30.42 in 10.0 mi WNW 10.4 mph - N/A   Mostly Cloudy
5:28 AM -2.2 °F -20.7 °F -9.4 °F 71% 30.44 in 10.0 mi NW 12.7 mph - N/A   Mostly Cloudy
5:55 AM -4.0 °F -23.7 °F -11.2 °F 71% 30.44 in 10.0 mi WNW 13.8 mph - N/A   Clear
6:08 AM -4.0 °F -22.1 °F -11.2 °F 71% 30.44 in 10.0 mi WNW 11.5 mph - N/A   Clear
6:37 AM -5.8 °F -19.9 °F -13.0 °F 71% 30.44 in 10.0 mi WNW 6.9 mph - N/A   Clear
6:48 AM -5.8 °F -19.9 °F -11.2 °F 77% 30.44 in 10.0 mi WNW 6.9 mph - N/A   Clear
7:08 AM -5.8 °F -19.9 °F -13.0 °F 71% 30.44 in 10.0 mi WNW 6.9 mph - N/A   Clear
7:30 AM -7.6 °F -22.1 °F -14.8 °F 71% 30.44 in 10.0 mi West 6.9 mph - N/A   Clear
7:48 AM -7.6 °F -23.4 °F -9.4 °F 92% 30.44 in 10.0 mi West 8.1 mph - N/A   Clear
8:08 AM -7.6 °F -22.1 °F -14.8 °F 71% 30.45 in 10.0 mi WNW 6.9 mph - N/A   Clear
8:31 AM -5.8 °F -18.4 °F -11.2 °F 77% 30.45 in 10.0 mi NW 5.8 mph - N/A   Clear
9:10 AM -5.8 °F -19.9 °F -9.4 °F 84% 30.46 in 10.0 mi WNW 6.9 mph - N/A   Clear
9:31 AM -2.2 °F -18.9 °F -7.6 °F 78% 30.47 in 10.0 mi WNW 10.4 mph - N/A   Clear
9:53 AM -2.2 °F -21.5 °F -9.4 °F 71% 30.47 in 10.0 mi WNW 13.8 mph - N/A   Clear
10:50 AM -0.4 °F -22.3 °F -7.6 °F 72% 30.48 in 10.0 mi NW 19.6 mph - N/A   Clear
11:34 AM -0.4 °F -19.2 °F -9.4 °F 66% 30.46 in 10.0 mi NW 13.8 mph - N/A   Clear
11:49 AM -0.4 °F -18.4 °F -9.4 °F 66% 30.46 in 10.0 mi NW 12.7 mph - N/A   Clear
12:29 PM 1.4 °F -13.5 °F -7.6 °F 66% 30.45 in 10.0 mi WNW 9.2 mph - N/A   Clear
1:11 PM 1.4 °F -13.5 °F -5.8 °F 72% 30.43 in 10.0 mi NW 9.2 mph - N/A   Clear
1:51 PM 3.2 °F -11.3 °F -7.6 °F 61% 30.42 in 10.0 mi WNW 9.2 mph - N/A   Clear
2:14 PM 3.2 °F -10.3 °F -7.6 °F 61% 30.41 in 10.0 mi West 8.1 mph - N/A   Clear
2:31 PM 3.2 °F -7.8 °F -5.8 °F 66% 30.40 in 10.0 mi NW 5.8 mph - N/A   Clear
2:53 PM 3.2 °F -9.1 °F -7.6 °F 61% 30.40 in 10.0 mi West 6.9 mph - N/A   Clear
3:29 PM 5.0 °F -2.1 °F -5.8 °F 61% 30.38 in 10.0 mi West 3.5 mph - N/A   Clear
3:53 PM 5.0 °F -2.1 °F -4.0 °F 66% 30.38 in 10.0 mi West 3.5 mph - N/A   Clear
4:09 PM 5.0 °F - -5.8 °F 61% 30.38 in 10.0 mi Calm Calm - N/A   Clear
4:29 PM 5.0 °F - -5.8 °F 61% 30.37 in 10.0 mi Calm Calm - N/A   Clear
5:29 PM 3.2 °F - -5.8 °F 66% 30.35 in 10.0 mi Calm Calm - N/A   Clear
5:49 PM 1.4 °F - -5.8 °F 72% 30.34 in 10.0 mi Calm Calm - N/A   Clear
6:11 PM -0.4 °F -12.0 °F -7.6 °F 72% 30.33 in 10.0 mi East 5.8 mph - N/A   Clear
6:29 PM -0.4 °F -10.4 °F -7.6 °F 72% 30.33 in 10.0 mi ESE 4.6 mph - N/A   Clear
7:11 PM -0.4 °F -10.4 °F -7.6 °F 72% 30.32 in 10.0 mi ESE 4.6 mph - N/A   Clear
7:29 PM -2.2 °F -14.2 °F -7.6 °F 78% 30.30 in 10.0 mi ESE 5.8 mph - N/A   Clear
7:52 PM -0.4 °F -13.4 °F -5.8 °F 78% 30.30 in 10.0 mi ESE 6.9 mph - N/A   Clear
8:09 PM -0.4 °F -13.4 °F -7.6 °F 72% 30.29 in 10.0 mi SE 6.9 mph - N/A   Clear
8:31 PM -0.4 °F -10.4 °F -5.8 °F 78% 30.28 in 10.0 mi ESE 4.6 mph - N/A   Clear
8:49 PM 1.4 °F -12.5 °F -5.8 °F 72% 30.27 in 10.0 mi SE 8.1 mph - N/A   Clear
9:29 PM 1.4 °F -11.3 °F -5.8 °F 72% 30.26 in 10.0 mi SE 6.9 mph - N/A   Clear
9:51 PM 1.4 °F -13.5 °F -5.8 °F 72% 30.25 in 10.0 mi SE 9.2 mph - N/A   Clear
10:12 PM 1.4 °F -13.5 °F -5.8 °F 72% 30.24 in 10.0 mi SE 9.2 mph - N/A   Clear
10:29 PM 1.4 °F -15.3 °F -2.2 °F 85% 30.23 in 10.0 mi SE 11.5 mph - N/A   Clear
10:49 PM 1.4 °F -13.5 °F -4.0 °F 78% 30.22 in 10.0 mi SE 9.2 mph - N/A   Clear
11:09 PM 1.4 °F -13.5 °F -2.2 °F 85% 30.21 in 10.0 mi SSE 9.2 mph - N/A   Clear
11:38 PM 5.0 °F -10.8 °F -0.4 °F 78% 30.19 in 10.0 mi SE 11.5 mph - N/A   Mostly Cloudy
11:51 PM 5.0 °F -10.8 °F -2.2 °F 72% 30.19 in 10.0 mi SSE 11.5 mph - N/A   Overcast